Regional Weather Roundup
Issued by NWS Albany, NY

Home | Current Version | Previous Version | Text Only | Print | Product List | Glossary On
Versions: 1 2 3 4 5 6 7 8 9 10 11 12 13 14 15 16 17 18 19 20 21 22 23 24 25 26 27
000
ASUS41 KALY 280210
RWRALY

NEW YORK STATE HOURLY WEATHER ROUNDUP
NATIONAL WEATHER SERVICE ALBANY NY
1000 PM EDT FRI MAY 27 2016

NOTE: "FAIR" INDICATES FEW OR NO CLOUDS BELOW 12,000 FEET WITH NO
SIGNIFICANT WEATHER AND/OR NO OBSTRUCTIONS TO VISIBILITY.

NYZ032-033-038>043-046>054-057>066-NYZ062>081-082-084-280300-
EAST


CITY           SKY/WX    TMP DP  RH WIND       PRES   REMARKS
ALBANY         CLOUDY    77  67  71 SE3       30.00R
GLENS FALLS    MOCLDY    77  64  64 SW7       29.99R
POUGHKEEPSIE   CLOUDY    75  67  76 CALM      30.02R
NEWBURGH       MOCLDY    72  68  88 W7        30.05R
MONTGOMERY     CLOUDY    71  69  93 N7        30.03R
WHITE PLAINS   CLEAR     69  62  78 S5        30.05R
ISLIP          PTCLDY    68  56  65 SW16G24   30.08R
NEW YORK CITY  MOCLDY    74  66  76 S12       30.04R
CENTRAL PARK   CLEAR     78  63  59 VRB6      30.07R
$$

NYZ005>009-017-018-044>046-055-056-280300-
CENTRAL


CITY           SKY/WX    TMP DP  RH WIND       PRES   REMARKS
FULTON         FOG       70  68  93 CALM      30.01R VSB 1/4
SYRACUSE       MOCLDY    73  68  84 CALM      30.00R
ROME           CLEAR     71  67  87 CALM      30.03R
ELMIRA         CLOUDY    71  64  78 CALM      30.02R
BINGHAMTON     CLOUDY    69  64  84 S5        30.07R
MONTICELLO     CLOUDY    68  66  94 CALM      30.10S
$$

NYZ026>034-041>043-087-280300-
NORTH


CITY           SKY/WX    TMP DP  RH WIND       PRES   REMARKS
WATERTOWN      CLOUDY    71  66  84 S5        30.00R HAZE
FORT DRUM      NOT AVBL
MASSENA        CLOUDY    75  66  73 SW8       29.97R
SARANAC LAKE   MOCLDY    72  61  68 W3        30.03R
PLATTSBURGH    PTCLDY    77  62  59 SW3       29.94R
$$

NYZ001>004-010>016-019>021-085-280300-
WEST


CITY           SKY/WX    TMP DP  RH WIND       PRES   REMARKS
NIAGARA FALLS  MOCLDY    68  60  75 S5        30.01R
BUFFALO        MOCLDY    69  61  75 SW7       30.02R
DUNKIRK        CLOUDY    67  63  87 SE3       30.03R
JAMESTOWN      CLOUDY    70  61  73 NW3       30.08R
WELLSVILLE     MOCLDY    72  62  71 N5        30.11R
ROCHESTER      MOCLDY    73  61  65 SW5       30.02R
PENN YAN       CLOUDY    71  65  81 CALM      30.04R
$$

             KEY
       WCI = WIND CHILL INDEX
       VSB = VISIBILITY
       HX  = HEAT INDEX
$$




USA.gov is the U.S. government's official web portal to all federal, state and local government web resources and services.